This is the latest recevied weather packets stored in our database for station/object N2ZVN. If no packets are shown the sender has not sent any weather packets the latest 1 day(s).
| Time | Temp. | Humidity | Pressure | Rain* | Wind** | Luminosity | Snow |
|---|---|---|---|---|---|---|---|
| 1778028842 | 8.33° C | 95% | 1010.3 hPa | 3.05 mm | 0 m/s | 0 W/m² | - |
| 1778028537 | 8.33° C | 95% | 1010.3 hPa | 3.05 mm | 0 m/s | 0 W/m² | - |
| 1778028235 | 8.33° C | 95% | 1010.2 hPa | 3.05 mm | 0 m/s | 0 W/m² | - |
| 1778027931 | 8.33° C | 95% | 1010.3 hPa | 3.05 mm | 0 m/s | 0 W/m² | - |
| 1778027627 | 8.33° C | 95% | 1010.3 hPa | 3.05 mm | 0 m/s | 0 W/m² | - |
| 1778027323 | 8.33° C | 95% | 1010.3 hPa | 3.05 mm | 0 m/s | 0 W/m² | - |
| 1778027020 | 8.33° C | 95% | 1010.1 hPa | 3.05 mm | 0 m/s | 0 W/m² | - |
| 1778026716 | 8.33° C | 95% | 1010.3 hPa | 1.78 mm | 0 m/s | 0 W/m² | - |
| 1778026413 | 8.33° C | 94% | 1010.2 hPa | 1.27 mm | 0 m/s | 0 W/m² | - |
| 1778026110 | 8.33° C | 94% | 1010 hPa | 1.27 mm | 0 m/s | 1 W/m² | - |
| 1778025808 | 7.78° C | 94% | 1009.8 hPa | 1.78 mm | 0 m/s | 1 W/m² | - |
| 1778025504 | 7.78° C | 93% | 1009.4 hPa | 1.78 mm | 0 m/s | 2 W/m² | - |
| 1778025202 | 7.78° C | 93% | 1009.4 hPa | 1.27 mm | 0 m/s | 3 W/m² | - |
| 1778024898 | 7.78° C | 93% | 1009.4 hPa | 1.27 mm | 0 m/s | 4 W/m² | - |
| 1778024597 | 7.78° C | 93% | 1009.5 hPa | 1.78 mm | 0 m/s | 4 W/m² | - |
| 1778024293 | 8.33° C | 93% | 1009.3 hPa | 3.56 mm | 0 m/s | 5 W/m² | - |
| 1778023991 | 7.78° C | 93% | 1009.3 hPa | 3.05 mm | 0 m/s | 6 W/m² | - |
| 1778023688 | 7.78° C | 93% | 1009.4 hPa | 1.27 mm | 0 m/s | 6 W/m² | - |
| 1778023385 | 7.78° C | 93% | 1009.7 hPa | 1.78 mm | 0 m/s | 6 W/m² | - |
| 1778023082 | 7.78° C | 93% | 1009.7 hPa | 1.27 mm | 0 m/s | 7 W/m² | - |
| 1778022780 | 7.78° C | 92% | 1009.8 hPa | 3.05 mm | 0 m/s | 8 W/m² | - |
| 1778022478 | 7.78° C | 92% | 1009.7 hPa | 1.78 mm | 0.45 m/s, 329° | 9 W/m² | - |
| 1778022175 | 7.78° C | 92% | 1009.7 hPa | 1.27 mm | 0 m/s | 9 W/m² | - |
| 1778021871 | 7.78° C | 92% | 1009.9 hPa | 3.05 mm | 0.45 m/s, 332° | 10 W/m² | - |
| 1778021569 | 7.78° C | 91% | 1010 hPa | 1.78 mm | 0.45 m/s, 332° | 11 W/m² | - |
* Rain latest hour (hover to see other rain measurements)
** Current wind speed in m/s (hover to see current wind gust speed)